GEFSSGP_500_meanwind_096.txt.gz
Wind_Speed
10 9 7 7 6 5 4 2 0 1 2 3 3 3 3 4 5 6 7 8 9 11 12 13 13 14 14 15 15 16 17 17 17 17 17 17 18 19 19 20 20 21 21 21 21 22 21 21 20
12 10 9 7 6 5 4 3 1 1 2 3 4 3 4 5 5 6 7 8 10 11 12 13 13 14 14 14 14 15 15 15 15 15 15 16 16 17 18 19 20 21 22 22 22 23 23 22 21
13 11 10 9 7 6 5 4 3 4 4 4 4 4 5 6 6 7 8 9 11 12 12 12 13 13 12 13 14 14 14 14 14 14 15 15 15 16 17 18 20 21 22 22 23 24 24 23 22
14 13 12 11 8 6 5 5 5 4 6 6 5 5 6 7 7 8 9 10 12 12 11 11 11 11 12 12 13 13 13 13 13 14 14 14 15 16 17 18 19 20 21 22 23 24 24 24 22
16 15 12 11 10 8 7 6 6 7 6 7 6 6 6 7 8 9 10 11 11 11 10 10 10 11 11 11 12 12 12 13 13 13 14 14 14 15 16 17 18 19 20 21 22 23 24 24 24
16 14 12 12 11 9 8 7 8 8 8 8 8 7 6 7 8 9 10 11 10 10 9 9 10 10 11 11 12 12 12 13 13 13 14 14 14 15 16 17 18 19 19 20 21 22 23 24 24
18 15 13 12 11 10 9 9 9 9 9 8 7 8 7 7 8 9 10 10 10 9 9 9 9 10 10 11 12 11 12 12 13 13 14 15 15 16 17 17 18 19 19 20 20 21 22 23 23
18 17 15 13 12 11 10 9 9 7 7 7 7 7 7 7 8 9 9 9 9 9 9 9 9 9 10 11 12 12 12 12 13 13 14 15 16 16 17 18 18 19 19 20 20 21 22 23 23
20 17 16 14 13 12 11 10 9 8 7 7 7 7 7 8 8 9 9 9 9 9 9 9 9 9 10 11 12 12 12 13 13 14 15 16 17 17 18 18 19 19 19 19 20 20 21 22 22
21 18 16 15 13 12 11 10 9 8 7 7 8 7 7 8 9 9 9 9 8 8 8 8 9 9 11 11 12 12 12 13 13 14 15 16 17 18 18 18 19 19 19 19 20 20 20 21 22
22 19 18 16 14 13 12 11 10 10 10 8 8 7 7 8 9 9 9 9 8 8 8 8 9 9 11 12 12 12 12 13 14 15 16 17 18 19 19 19 19 19 19 19 19 19 20 20 21
22 21 19 17 14 13 13 12 11 10 9 8 8 8 8 8 9 9 8 8 8 8 8 8 9 9 11 11 12 12 12 13 14 16 17 17 18 19 19 20 19 19 19 19 18 18 19 19 19
23 21 19 17 15 14 12 11 10 9 9 8 8 8 8 9 9 9 8 8 8 8 8 8 9 10 10 11 12 12 13 14 15 16 17 17 18 19 20 20 19 19 18 18 17 17 17 18 18
23 21 19 17 15 13 12 11 10 9 9 8 8 8 8 9 9 9 8 8 8 8 8 8 9 10 10 10 11 11 12 14 15 16 17 18 18 19 19 19 19 18 18 17 17 16 17 17 18
22 20 18 16 14 13 11 10 10 10 9 9 9 9 9 9 9 9 9 9 9 8 8 8 9 9 10 10 11 12 13 14 15 16 17 18 19 19 19 19 18 18 17 17 16 16 16 17 18
21 19 17 15 14 12 10 9 9 9 8 8 8 8 9 9 9 9 9 9 9 9 8 9 9 9 10 10 11 12 13 14 16 16 17 18 18 19 19 18 18 18 17 16 15 15 15 16 17
18 17 16 15 13 11 10 10 8 8 8 8 8 8 8 9 9 9 9 9 9 9 9 9 9 9 9 10 11 12 13 15 16 17 17 17 18 19 18 18 18 18 17 15 14 13 13 14 15
16 15 14 13 11 10 9 9 8 7 7 7 7 8 9 9 9 9 9 9 9 9 9 9 8 9 9 10 11 12 13 15 16 16 17 17 18 18 18 18 17 17 16 14 13 12 11 12 13
15 14 12 11 10 8 8 7 6 6 6 7 8 9 9 10 10 9 9 9 9 9 10 9 8 9 9 9 11 12 14 15 16 16 16 17 18 18 17 17 17 16 15 13 11 10 9 10 11
15 14 11 10 9 8 7 6 4 4 5 7 8 9 9 10 10 10 9 9 8 9 10 10 9 9 9 10 11 12 14 14 15 16 16 17 17 17 17 16 16 15 15 13 11 9 7 8 10
15 13 11 10 8 7 6 5 4 4 5 6 7 8 9 9 9 9 8 8 8 9 10 10 9 9 9 10 11 12 13 14 15 16 16 17 17 16 16 16 16 15 14 12 11 7 5 5 7
13 12 10 9 8 7 6 5 4 4 5 6 7 8 8 9 9 8 8 8 8 9 9 10 9 9 9 10 11 12 13 13 14 15 16 16 16 16 15 15 15 14 13 12 11 7 3 2 5
12 10 9 9 8 7 6 5 4 4 5 6 7 7 7 8 8 7 8 8 8 9 9 10 9 9 9 10 11 12 12 13 14 15 15 16 16 15 15 14 14 13 12 11 10 7 3 0 4
11 9 9 9 8 6 6 4 4 4 5 5 5 6 7 7 7 7 8 8 9 9 9 10 10 10 10 10 11 11 12 13 14 15 15 15 15 15 14 13 13 12 12 10 9 7 4 1 3
10 9 8 8 7 5 5 4 4 4 4 5 6 6 7 7 8 8 8 8 9 9 10 11 11 11 10 11 11 11 12 12 13 14 15 15 14 14 13 12 12 12 11 10 8 6 4 2 2
9 7 6 6 5 3 3 3 4 5 6 6 7 8 8 8 8 9 9 9 10 10 11 12 12 11 11 11 11 11 11 12 12 13 14 14 13 13 13 12 11 11 10 10 8 6 3 2 1
7 5 4 4 3 2 3 4 5 6 7 7 9 9 9 9 9 10 10 10 11 12 12 12 12 12 11 11 11 11 12 12 12 13 13 12 12 12 12 11 11 10 10 9 8 6 4 2 1
5 3 2 2 2 3 4 5 6 7 8 9 9 10 10 10 10 11 11 12 12 12 13 13 12 12 12 12 12 12 12 12 12 12 12 12 11 11 11 11 10 9 9 9 8 6 4 2 1
3 2 1 2 2 4 5 5 7 8 8 9 10 11 11 12 12 12 12 13 13 13 13 14 13 13 13 13 12 12 12 12 12 12 12 11 11 10 10 10 9 8 8 7 7 6 4 2 1
2 1 1 2 2 3 5 5 7 8 8 9 10 11 12 12 12 13 13 14 14 14 15 15 14 14 14 14 14 13 13 13 13 13 12 12 11 11 10 9 9 8 7 6 6 6 4 3 2

GEFSSGP_500_meanwind_102.txt.gz
Wind_Speed
9 7 5 4 3 1 1 0 1 2 3 4 4 4 5 5 5 5 5 5 6 7 8 8 9 9 9 9 10 11 11 11 11 10 10 11 11 11 11 11 11 12 12 13 14 14 15 15 15
10 8 7 6 4 2 2 2 2 3 3 3 3 3 4 4 5 5 5 5 6 7 8 8 9 8 9 9 10 10 10 10 10 10 10 11 11 11 12 11 11 12 12 13 13 15 16 16 15
11 10 8 7 6 4 3 3 3 3 3 3 3 3 4 4 4 4 5 6 7 8 8 8 8 8 8 8 9 10 10 10 10 10 11 11 11 11 12 12 13 13 13 14 15 15 15 16 16
13 11 9 8 7 6 4 3 4 4 3 4 4 5 5 5 5 5 5 6 7 8 8 8 7 7 8 9 9 9 10 10 10 11 11 11 11 11 11 12 13 14 14 15 15 16 16 16 17
15 13 11 10 8 7 5 4 5 4 5 5 5 6 6 5 5 5 6 7 7 7 8 7 7 8 8 9 9 10 11 11 11 11 12 11 11 12 12 13 14 15 15 15 15 16 16 16 17
17 14 13 11 9 7 6 5 5 5 4 5 6 7 7 6 6 6 7 7 8 8 7 7 7 8 8 9 10 10 11 11 11 11 12 12 12 13 13 14 15 15 15 16 16 16 16 17 17
19 16 14 13 10 8 7 6 6 5 6 6 6 8 8 7 6 6 7 7 8 8 7 7 7 8 9 9 9 10 10 11 11 12 12 13 13 14 14 15 16 16 16 17 17 17 17 17 17
20 17 15 14 11 10 8 6 5 5 5 5 6 7 7 7 8 7 7 7 7 7 7 7 8 8 9 9 9 10 11 11 12 12 13 13 14 15 15 16 16 17 17 17 17 17 17 17 17
20 18 16 15 12 10 9 7 6 6 5 6 6 7 7 8 8 8 8 8 8 8 8 8 8 8 9 9 10 11 12 12 12 12 13 14 15 16 16 17 17 17 17 18 18 18 17 17 17
21 19 17 16 14 11 9 8 7 6 6 7 7 8 8 8 8 8 8 8 8 8 8 9 9 9 9 10 11 12 12 12 12 13 14 15 16 16 17 17 17 18 18 18 18 18 18 17 17
23 20 18 16 14 12 10 9 8 7 7 7 8 8 8 8 9 8 8 8 8 9 9 9 9 10 10 11 12 12 12 12 12 13 14 15 16 17 17 17 18 18 18 18 18 19 18 18 18
22 21 19 16 15 13 11 10 8 8 8 8 8 8 8 9 9 9 9 8 8 9 9 9 10 10 11 11 12 12 12 12 13 14 15 16 16 17 18 18 18 18 18 18 19 19 19 17 18
24 22 20 17 15 13 11 10 8 8 8 8 8 8 8 9 10 9 9 9 9 9 10 10 10 11 12 12 12 12 12 13 14 15 15 16 17 17 18 19 19 19 18 19 19 18 18 18 18
24 23 21 18 16 14 12 10 9 8 7 8 8 8 9 9 9 8 9 9 10 10 10 10 11 12 12 13 13 13 13 13 14 15 16 17 17 18 19 19 19 18 18 19 18 18 17 17 18
24 22 20 18 16 14 12 10 9 8 7 8 8 7 8 9 8 9 9 10 10 11 11 11 12 13 13 13 13 13 13 14 15 16 16 16 17 18 19 19 18 18 19 18 17 17 16 16 17
23 22 20 18 16 13 11 10 9 8 7 7 8 8 8 8 8 9 9 9 10 11 11 12 12 13 13 14 14 14 14 15 15 16 16 17 17 18 19 19 18 18 18 18 16 16 15 15 15
23 21 20 17 15 12 11 9 8 7 7 7 7 7 7 7 8 8 9 9 10 11 11 12 12 13 13 13 14 14 14 15 15 16 17 17 18 18 18 18 18 18 18 17 16 15 14 13 13
22 21 19 16 14 11 9 8 7 7 7 7 6 6 6 6 7 9 10 10 10 11 11 12 12 13 13 13 13 14 14 15 15 16 17 17 18 18 18 17 17 18 17 16 15 13 12 12 12
22 20 18 15 13 10 9 8 7 6 5 4 4 5 5 6 7 9 9 9 10 10 11 11 12 13 13 13 13 13 14 14 14 15 17 17 17 18 17 17 17 17 17 15 13 12 11 10 11
21 18 16 14 12 10 9 8 6 5 3 3 4 5 6 6 7 8 9 9 9 10 11 12 12 13 13 13 13 13 14 14 14 15 16 17 17 17 17 16 16 16 16 15 13 12 10 9 9
18 17 15 13 11 10 9 7 5 3 3 3 4 5 6 7 8 8 8 9 9 10 11 11 12 12 12 13 13 13 13 14 14 15 16 17 17 17 17 16 16 16 15 14 13 11 9 7 6
17 17 15 14 12 11 9 7 5 3 2 3 4 5 7 8 8 8 8 8 9 10 11 11 12 13 13 13 13 13 13 14 14 15 16 16 17 17 17 16 16 15 14 13 12 10 7 5 4
18 16 15 13 12 10 9 7 5 3 2 3 4 5 6 7 8 8 8 8 9 10 11 12 12 12 13 13 13 13 13 13 14 15 16 16 16 17 17 16 16 15 14 12 11 9 7 4 3
17 15 14 12 11 10 9 7 5 3 2 3 4 5 6 7 7 8 8 9 9 10 11 12 12 12 13 13 13 13 13 13 14 14 15 16 16 16 16 16 15 15 14 12 10 9 7 4 2
15 14 14 12 12 10 8 6 5 3 3 3 5 6 7 8 8 8 9 9 10 11 12 12 12 12 13 13 13 13 13 13 14 14 15 15 16 15 15 15 15 14 13 12 10 8 7 5 1
13 14 13 12 11 9 7 6 4 4 3 4 5 6 7 7 8 8 9 9 10 11 11 12 12 13 13 13 13 14 14 14 14 15 15 15 15 15 15 15 15 14 13 12 10 8 7 4 2
12 11 11 11 10 8 7 5 5 4 4 5 5 6 6 6 7 8 8 9 10 11 11 12 12 13 13 13 14 14 14 14 15 15 15 15 15 15 15 14 14 14 13 11 11 9 7 5 3
11 11 11 11 10 8 7 6 4 4 4 5 5 5 6 6 7 8 8 9 10 11 11 12 13 13 13 13 14 14 14 14 15 15 15 15 15 15 15 14 14 14 13 11 10 10 8 6 4
11 10 10 9 9 8 7 6 5 4 4 4 4 5 6 6 7 7 8 9 10 11 11 12 13 14 14 14 14 15 15 15 16 16 16 16 16 16 15 14 14 14 13 12 11 10 9 7 5
10 9 9 9 8 8 7 6 5 4 4 4 5 5 6 7 7 8 9 10 11 11 12 13 13 14 14 15 15 15 15 16 16 16 16 16 17 16 16 15 14 14 13 12 11 10 9 8 6

GEFSSGP_500_meanwind_108.txt.gz
Wind_Speed
8 7 6 5 3 3 3 2 2 2 3 3 5 5 5 4 5 6 7 7 7 7 8 8 9 8 8 8 9 9 9 9 9 9 9 10 10 10 10 10 10 10 11 11 12 12 12 13 13
10 8 7 6 5 4 3 3 3 2 3 3 4 4 4 5 5 6 7 7 7 7 8 8 8 8 9 9 9 9 9 10 10 10 10 10 10 11 11 11 11 11 11 12 12 12 12 13 13
11 10 9 8 7 6 5 5 4 3 3 4 4 3 4 5 5 6 6 7 7 8 8 8 9 9 9 9 10 9 10 10 10 10 10 11 11 11 11 11 11 12 12 12 13 13 13 13 14
13 12 11 10 8 7 7 7 5 4 4 5 5 4 5 5 6 6 6 7 7 8 9 9 9 9 10 10 10 10 11 11 11 11 11 11 11 11 11 11 12 13 13 13 13 13 14 14 15
15 13 12 11 10 9 8 7 6 5 4 5 5 5 5 6 6 7 7 8 8 9 9 9 9 9 9 10 10 11 11 11 11 11 11 11 12 12 12 12 12 13 13 13 13 13 14 14 15
16 15 14 13 11 10 9 7 6 6 6 6 6 4 5 6 6 7 8 8 9 9 9 9 9 9 10 10 10 11 11 11 11 11 12 12 12 12 12 13 14 14 14 14 14 14 14 14 15
19 18 16 15 13 11 10 8 8 7 7 7 6 5 6 6 6 7 8 9 10 10 9 9 9 10 10 10 10 11 11 11 12 12 12 12 12 12 13 14 15 15 15 14 14 14 14 14 15
21 19 18 17 15 13 11 10 8 7 7 7 7 6 6 6 6 7 9 10 10 10 10 9 9 10 11 11 11 11 12 12 12 12 13 13 13 14 14 15 16 16 16 15 15 15 15 15 15
23 21 20 18 16 14 12 11 9 8 8 8 8 8 8 7 7 8 9 10 10 10 10 10 9 10 10 11 11 12 13 13 12 13 14 14 14 15 16 17 17 17 16 16 16 16 16 16 16
23 22 21 19 17 14 12 11 10 9 8 8 8 8 8 8 8 8 9 9 9 10 10 10 10 11 11 11 12 12 13 13 13 13 14 15 15 16 17 17 17 17 17 17 16 17 17 17 17
25 23 23 19 16 14 12 11 11 9 9 9 8 7 8 9 8 8 9 9 9 10 10 10 10 11 11 12 13 13 14 13 14 14 14 15 16 17 17 18 18 18 18 18 18 18 17 17 18
26 24 22 19 17 14 13 12 11 10 8 7 8 8 8 8 8 8 9 9 9 9 9 9 10 10 11 12 13 14 14 14 14 15 15 16 17 18 18 18 18 18 19 18 18 18 18 18 18
26 24 22 18 16 15 12 11 10 9 9 9 9 8 9 8 8 8 8 9 9 9 9 10 10 11 12 13 13 14 14 14 14 15 16 17 18 18 19 19 19 19 19 19 18 18 18 18 17
25 23 21 19 17 16 13 12 10 10 9 8 8 7 7 6 7 7 8 8 8 8 9 10 10 11 12 13 14 14 14 14 15 16 16 17 18 19 19 19 20 20 19 19 19 19 18 17 17
24 22 20 19 18 15 13 11 10 9 8 7 7 6 5 5 6 6 7 8 8 8 9 10 10 11 13 13 13 14 14 14 15 16 17 17 18 19 19 19 20 19 19 19 18 18 17 16 16
24 22 20 18 17 14 12 10 10 8 7 6 6 5 5 5 5 6 7 7 8 9 9 10 11 12 12 13 13 14 14 15 16 17 17 17 18 19 19 20 20 19 18 18 18 17 16 15 14
23 21 20 18 15 13 11 10 8 6 5 5 5 4 4 5 5 6 6 7 8 9 9 10 11 11 12 13 13 14 15 16 16 17 17 17 18 19 19 20 19 19 18 18 17 16 15 14 13
21 20 18 16 14 12 11 9 7 5 4 4 4 4 4 4 5 5 6 7 8 8 9 10 11 11 12 13 14 14 15 15 16 17 17 17 18 19 20 20 19 19 18 18 17 16 14 13 12
19 18 16 14 12 11 10 8 6 6 5 4 4 4 4 4 4 6 6 7 7 8 9 10 11 12 12 13 14 14 15 15 16 16 17 17 18 19 19 19 19 19 18 17 16 15 14 13 12
20 18 15 14 12 10 9 7 6 5 4 3 3 3 3 3 4 6 7 6 7 8 8 9 11 12 12 13 13 14 15 15 16 16 17 17 18 18 19 19 18 18 18 17 16 15 14 13 11
20 19 17 14 12 11 9 7 5 4 4 3 2 2 3 3 4 5 6 7 8 8 9 9 11 11 12 13 13 14 14 15 16 16 17 17 18 18 18 19 18 18 18 17 16 14 13 12 10
19 19 17 14 12 9 7 6 4 4 3 2 2 2 2 3 4 5 5 6 7 8 8 9 10 11 12 12 13 14 14 15 16 16 16 17 17 18 18 19 18 18 17 16 15 14 13 12 10
19 18 16 14 12 8 6 5 5 5 3 2 2 2 3 3 3 4 5 6 7 8 8 9 10 11 11 12 13 13 14 15 16 16 16 16 17 17 18 18 18 17 17 16 16 14 13 12 10
18 18 16 16 14 12 8 7 5 4 3 3 3 3 3 3 3 4 4 5 6 7 8 9 10 11 11 12 12 13 14 15 15 16 17 17 17 17 17 18 18 17 17 16 16 15 13 12 10
19 19 17 15 13 12 10 8 7 6 6 5 4 3 3 3 3 3 3 4 5 7 8 9 10 11 12 12 13 13 14 14 15 16 17 17 17 17 17 17 17 17 17 16 15 15 13 12 10
20 18 16 14 12 11 9 10 7 7 7 7 5 4 3 3 3 3 4 5 6 7 8 9 10 11 11 12 13 14 14 14 15 16 17 18 18 18 17 17 17 17 16 16 15 15 14 12 10
19 16 15 13 10 9 10 11 8 8 9 8 5 4 3 3 3 3 4 5 6 7 8 9 10 11 12 12 13 14 14 14 15 16 17 18 18 18 18 18 17 17 17 16 16 15 15 13 11
16 14 11 13 12 10 9 11 9 9 9 7 5 4 3 3 2 3 4 5 6 7 7 9 10 11 11 12 13 14 15 15 16 16 17 17 18 18 19 18 18 17 17 17 16 15 14 13 11
14 13 12 12 10 9 10 12 9 7 8 7 5 4 4 3 3 3 4 5 5 7 8 9 10 11 11 12 13 14 15 15 16 17 18 18 18 18 19 19 19 18 18 18 16 15 14 13 12
14 15 14 13 13 13 12 11 10 9 8 7 5 5 4 4 4 4 4 5 6 7 8 9 10 11 12 13 14 14 15 15 16 17 18 19 19 19 19 19 19 19 19 18 18 16 15 14 13

GEFSSGP_500_meanwind_114.txt.gz
Wind_Speed
8 7 6 5 4 3 3 2 2 2 3 2 2 3 3 2 2 3 4 3 3 4 5 5 5 5 6 6 6 7 7 7 8 8 8 8 9 9 9 9 9 10 10 10 10 10 11 11 12
11 9 8 7 6 5 4 2 1 2 3 2 2 2 3 2 2 3 3 3 3 4 5 5 5 5 6 6 6 7 8 8 8 8 9 9 9 9 10 10 10 10 10 10 11 11 12 12 12
12 11 10 9 8 7 6 4 2 2 2 2 2 2 2 2 2 3 3 3 3 4 5 4 4 5 6 6 7 7 8 8 9 9 9 9 9 10 10 10 10 10 10 11 11 11 12 12 13
14 13 12 11 10 9 8 6 3 2 2 2 2 2 3 2 2 2 3 3 3 4 4 4 5 5 6 7 7 7 8 9 9 9 8 9 9 10 10 10 10 11 11 12 12 12 12 12 12
16 15 14 12 11 10 9 8 6 4 3 3 2 2 2 2 2 2 3 3 3 4 4 5 5 5 6 7 8 8 8 9 8 8 8 9 9 10 10 10 11 11 12 12 13 12 12 13 13
18 17 16 14 12 10 9 7 6 5 4 3 2 2 2 2 2 2 3 3 3 4 5 5 5 6 6 7 8 8 9 8 8 8 8 9 10 10 10 11 11 12 13 13 13 13 13 13 13
20 19 17 16 13 11 10 8 7 6 5 4 3 2 2 2 2 2 3 4 4 4 5 5 5 6 7 7 8 8 8 8 8 8 9 9 10 10 11 11 12 13 13 13 13 13 13 13 13
22 21 19 17 15 13 10 9 8 7 6 5 4 3 2 3 2 2 3 4 4 5 5 5 6 7 7 7 8 8 8 8 8 8 9 9 10 11 11 12 13 14 14 14 13 13 13 14 14
24 22 19 18 17 15 13 11 10 8 7 6 5 4 3 3 3 3 3 3 4 5 4 5 6 8 8 8 8 8 8 8 8 9 9 10 11 11 12 13 14 14 14 14 14 14 14 14 14
24 22 21 19 18 16 14 12 11 9 8 6 5 4 4 3 3 3 3 3 4 4 4 5 6 7 8 7 8 8 8 8 9 9 10 10 11 12 13 14 14 14 14 14 14 14 15 15 15
25 23 22 21 19 16 14 13 11 10 8 6 5 3 3 3 3 4 4 4 3 4 4 5 5 6 7 7 7 8 8 8 9 10 10 11 12 12 13 13 14 14 14 14 14 14 15 15 15
25 24 24 21 19 17 15 13 11 9 8 6 5 4 4 4 4 4 5 5 4 4 4 4 5 5 5 6 6 8 8 8 9 10 11 12 12 12 13 13 14 14 14 14 14 14 15 15 15
26 25 24 22 19 17 15 12 10 8 7 6 5 5 4 4 4 3 4 4 4 3 4 4 5 5 5 6 7 8 8 9 10 10 11 11 12 12 12 13 13 14 14 14 14 14 15 14 15
27 26 24 22 20 17 14 12 10 9 8 6 5 5 5 4 3 3 4 4 4 4 4 5 6 6 6 7 8 8 9 9 10 10 11 11 11 12 13 13 13 14 14 14 14 14 14 14 14
27 26 24 22 19 17 14 12 11 9 8 6 6 5 5 4 3 3 3 3 3 4 4 5 5 5 6 7 7 8 9 10 10 10 10 10 11 12 13 13 13 14 14 14 14 14 13 13 12
26 25 23 21 18 17 15 13 11 10 9 7 6 5 4 3 3 2 2 2 2 3 4 4 5 6 6 7 8 9 10 11 10 10 10 10 11 12 13 13 13 14 14 15 14 13 12 11 11
25 24 22 21 19 18 16 13 12 10 9 7 6 5 4 3 3 2 1 1 1 2 3 4 5 6 6 7 8 9 10 11 10 10 10 10 11 12 13 13 13 14 15 15 13 12 12 11 10
24 23 22 20 19 17 15 12 11 10 8 7 6 5 4 3 2 2 1 0 1 1 3 4 5 6 7 7 8 9 10 10 11 10 11 11 11 12 13 13 13 15 15 14 13 12 11 10 9
25 23 23 22 20 17 15 13 11 10 9 8 7 6 4 4 3 2 1 0 1 2 3 4 5 6 6 7 8 9 9 10 11 11 11 11 12 12 13 13 14 15 15 14 13 12 11 9 8
25 24 24 22 20 18 15 14 13 11 10 9 8 6 5 4 3 2 1 1 1 2 3 4 5 5 6 7 8 8 9 10 11 11 12 12 12 13 13 14 14 14 14 14 13 12 11 9 8
25 25 24 22 20 18 16 14 12 11 10 8 7 6 5 4 3 2 1 1 2 2 3 4 5 5 6 7 7 8 9 10 11 12 12 13 13 13 13 13 14 15 14 14 13 13 12 10 9
25 24 23 21 19 17 16 14 13 12 9 7 6 6 5 4 3 2 1 1 2 3 3 4 4 5 6 6 7 8 9 10 11 12 13 13 13 13 13 13 14 14 14 14 13 13 12 11 9
24 23 22 20 19 17 16 14 13 10 8 7 6 5 5 4 3 2 2 2 2 3 3 3 4 5 6 7 7 8 9 10 11 12 13 14 14 14 14 14 14 14 14 14 13 13 12 12 10
24 23 21 20 18 17 16 14 11 9 8 7 6 5 5 4 3 3 2 2 2 2 2 3 4 5 6 7 8 8 9 10 11 12 13 13 14 14 14 14 14 15 15 14 13 14 13 12 11
24 23 22 21 19 17 16 14 11 8 7 7 6 6 5 4 4 4 3 3 2 2 2 3 4 5 6 7 8 8 9 10 11 12 12 13 14 14 15 15 15 15 16 15 14 14 14 13 11
23 21 20 19 18 16 15 13 11 9 7 7 6 6 5 4 4 4 4 3 2 2 2 3 3 4 5 6 7 8 9 10 11 11 12 13 14 14 15 16 16 17 16 16 15 14 14 13 12
21 20 18 16 16 15 14 12 10 9 8 7 6 6 5 5 4 4 4 3 2 1 1 2 3 4 5 6 7 8 8 10 11 12 13 13 13 14 15 15 16 16 17 16 16 14 14 13 13
19 18 16 16 16 15 14 12 9 8 7 7 6 5 5 5 5 4 4 3 2 1 1 2 3 4 5 6 6 7 8 9 10 11 12 13 14 14 15 15 16 16 17 17 17 15 14 13 13
18 17 16 15 13 14 14 11 9 8 7 6 6 6 6 6 5 5 4 3 3 1 0 1 3 4 4 5 6 7 8 9 10 11 12 13 14 14 15 15 16 16 17 17 17 16 15 13 13
17 17 16 15 13 13 12 10 9 8 7 6 6 6 6 6 6 5 5 4 3 2 1 1 2 3 4 5 6 7 8 9 10 10 12 13 14 14 15 16 16 16 17 17 17 17 16 15 13